[[{"header":{"parameterUnit":"m.s-1","parameterCategory":1,"la1":30.2991,"la2":30.254,"lo1":-89.0895,"lo2":-89.0444,"dy":0.0017,"dx":0.0017,"nx":28,"ny":28,"refTime":"2024-08-25T21:00:00:Z","depth":0,"parameterNumber":2,"parameterNumberName":"U-component_of_WINDS"},"data":[0,0,0,0,0,0,0,0,0,0,0,0,0,0,0,0,0,0,0,0,0,0,0,0,0,0,0,0,0,0,0,0,0,0,0,0,0,0,0,0,0,0,0,0,0,0,0,0,0,0,0,0,0,0,0,0,0,0,-5.2717,-5.2717,0,-5.2702,-5.2702,-5.2702,-5.2584,-5.2581,-5.2578,-5.2575,-5.2562,-5.2564,-5.2567,0,0,0,0,0,0,0,0,0,0,0,0,0,-5.2647,-5.2649,-5.2717,-5.2717,-5.2717,-5.2702,-5.2702,-5.2702,-5.2584,-5.2581,-5.2577,-5.2574,-5.2561,-5.2564,-5.2567,0,0,0,0,0,0,0,0,0,0,0,0,0,-5.2659,-5.2649,-5.2717,-5.2656,-5.2651,-5.2702,-5.2702,-5.2702,-5.2585,-5.2581,-5.2576,-5.2572,-5.256,-5.2564,-5.2567,-5.2677,0,0,-5.2578,-5.258,0,0,0,0,0,0,0,0,-5.2659,-5.2662,-5.2666,-5.2661,-5.2654,-5.264,-5.2672,-5.2694,-5.2586,-5.261,-5.2575,-5.257,-5.2592,-5.2592,-5.2599,-5.2676,-5.2676,-5.2578,-5.2581,-5.2582,-5.2583,0,0,0,0,0,0,0,-5.2658,-5.2662,-5.2711,-5.2666,-5.2659,-5.2631,-5.2628,-5.2676,-5.2626,-5.2608,-5.2599,-5.2599,-5.2588,-5.2596,-5.2598,-5.2675,-5.2578,-5.2582,-5.2584,-5.2585,-5.2844,-5.2849,0,0,0,0,0,0,-5.2665,-5.2662,-5.2712,-5.2711,-5.2646,-5.2636,-5.2632,-5.2649,-5.2625,-5.2617,-5.2603,-5.2593,-5.2592,-5.2594,-5.2597,-5.2725,-5.2582,-5.2585,-5.2587,-5.284,-5.2845,-5.285,0,0,0,0,0,0,-5.2664,-5.2671,-5.2712,-5.2684,-5.2687,-5.2642,-5.2662,-5.2651,-5.2659,-5.2621,-5.2612,-5.262,-5.2589,-5.2592,-5.2658,-5.2723,-5.2587,-5.259,-5.2834,-5.2841,-5.2848,-5.2982,0,0,0,0,0,0,-5.2663,-5.2671,-5.2711,-5.2686,-5.2689,-5.2773,-5.2666,-5.2654,-5.2666,-5.2654,-5.2635,-5.2628,-5.2586,-5.2654,-5.2662,-5.2725,-5.2593,-5.2828,-5.2837,-5.2846,-5.2971,-5.2992,-5.3011,0,0,0,0,0,-5.2661,-5.2749,-5.2714,-5.2721,-5.2738,-5.2777,-5.2779,-5.2728,-5.2671,-5.2712,-5.2688,-5.2628,-5.2715,-5.2661,-5.267,-5.2735,-5.2824,-5.2835,-5.2845,-5.2962,-5.2988,-5.301,0,0,0,0,0,0,-5.2783,-5.2745,-5.2705,-5.2788,-5.2787,-5.2757,-5.2806,-5.2757,-5.2772,-5.276,-5.2697,-5.2694,-5.277,-5.2759,-5.27,-5.2842,-5.2759,-5.2772,-5.2846,-5.287,-5.2889,-5.289,-5.2596,0,0,0,0,0,-5.282,-5.2854,-5.2819,-5.2895,-5.2897,-5.2852,-5.2867,-5.2829,-5.2825,-5.2824,-5.2804,-5.2803,-5.283,-5.285,-5.2872,-5.2969,-5.2965,-5.3019,-5.3039,-5.3055,-5.3067,-5.312,-5.3144,-5.2886,-5.2885,-5.2885,0,0,-5.2896,-5.2879,-5.2904,-5.292,-5.2914,-5.2952,-5.2852,-5.2896,-5.2923,-5.283,-5.2891,-5.2878,-5.2873,-5.2956,-5.2991,-5.2949,-5.3137,-5.3069,-5.3082,-5.3085,-5.3133,-5.3158,-5.3179,-5.2893,-5.2892,-5.289,0,0,-5.3054,-5.3044,-5.3108,-5.3105,-5.3098,-5.3068,-5.3084,-5.3062,-5.3049,-5.311,-5.3042,-5.3074,-5.3122,-5.3122,-5.3128,-5.329,-5.3237,-5.33,-5.3402,-5.3455,-5.3475,-5.3493,-5.3552,-5.3573,-5.3312,-5.3312,-5.3312,0,-5.3149,-5.3202,-5.3147,-5.3195,-5.3205,-5.3123,-5.3188,-5.3188,-5.319,-5.3199,-5.3151,-5.3211,-5.3202,-5.3285,-5.3325,-5.3332,-5.3349,-5.3301,-5.3476,-5.3494,-5.3509,-5.3565,-5.3587,-5.332,-5.3319,-5.3318,-5.3317,0,-5.3321,-5.3359,-5.3411,-5.3415,-5.3431,-5.3487,-5.3442,-5.3465,-5.3426,-5.3402,-5.3467,-5.3453,-5.3473,-5.349,-5.3452,-5.3568,-5.3542,-5.3487,-5.3403,-5.3543,-5.3594,-5.3615,-5.3331,-5.3328,-5.3326,-5.3324,0,0,-5.3553,-5.3527,-5.3547,-5.3549,-5.3537,-5.3566,-5.362,-5.3639,-5.3661,-5.3666,-5.371,-5.3754,-5.3704,-5.3711,-5.3673,-5.3719,-5.385,-5.3658,-5.3657,-5.3695,-5.3979,-5.4021,-5.4047,-5.3815,-5.3819,-5.3822,-5.398,0,-5.3705,-5.3795,-5.3748,-5.3845,-5.3881,-5.3805,-5.3853,-5.3852,-5.3832,-5.386,-5.3838,-5.387,-5.38,-5.3805,-5.3847,-5.3825,-5.3906,-5.3813,-5.3857,-5.386,-5.3861,-5.4073,-5.4117,-5.4267,-5.4,-5.4003,-5.4005,0,-5.3894,-5.3907,-5.4008,-5.3991,-5.4004,-5.4048,-5.4063,-5.4091,-5.4089,-5.4071,-5.4082,-5.4034,-5.4087,-5.4005,-5.4079,-5.4017,-5.4033,-5.4026,-5.403,-5.4032,-5.3941,-5.4082,-5.4313,-5.4336,-5.4036,-5.4034,-5.4031,0,-5.4054,-5.4097,-5.4163,-5.4167,-5.4149,-5.4182,-5.4177,-5.417,-5.4186,-5.42,-5.421,-5.423,-5.4241,-5.4259,-5.4219,-5.4162,-5.43,-5.4213,-5.4288,-5.4289,-5.4319,-5.4318,-5.4557,-5.433,-5.4329,-5.4329,-5.4328,0,-5.4229,-5.4293,-5.4236,-5.4276,-5.4347,-5.4295,-5.4367,-5.4353,-5.4349,-5.4387,-5.4323,-5.436,-5.4305,-5.4337,-5.4306,-5.4374,-5.4379,-5.4368,-5.4359,-5.4373,-5.4375,-5.4382,-5.4371,-5.4335,-5.4334,-5.4332,-5.4331,0,-5.4419,-5.4383,-5.445,-5.4429,-5.4425,-5.4479,-5.4461,-5.4499,-5.4475,-5.4524,-5.4533,-5.4497,-5.4532,-5.4494,-5.4526,-5.4505,-5.4597,-5.4572,-5.4597,-5.459,-5.4667,-5.4661,-5.4919,-5.4951,-5.4704,-5.4706,-5.4708,0,-5.4533,-5.4581,-5.4566,-5.4586,-5.4585,-5.4619,-5.4635,-5.4586,-5.4605,-5.4609,-5.4647,-5.4677,-5.4698,-5.4758,-5.4735,-5.476,-5.4736,-5.4825,-5.4739,-5.4754,-5.4739,-5.4736,-5.4742,-5.4843,-5.4846,-5.4848,-5.485,0,-5.4739,-5.4719,-5.4744,-5.4765,-5.4785,-5.4799,-5.4807,-5.4828,-5.4778,-5.4803,-5.4839,-5.4855,-5.4889,-5.492,-5.4939,-5.4935,-5.4885,-5.4878,-5.4896,-5.4911,-5.4924,-5.4919,-5.4645,-5.4872,-5.4869,-5.4868,-5.4867,-5.4866,-5.4894,-5.4934,-5.4931,-5.4962,-5.4963,-5.4974,-5.5009,-5.4991,-5.5019,-5.5042,-5.5012,-5.5057,-5.5056,-5.5077,-5.5079,-5.5114,-5.5076,-5.5102,-5.5109,-5.5117,-5.5129,-5.4919,-5.5117,-5.5116,-5.5115,-5.5115,-5.5114,0,-5.5097,-5.5092,-5.5121,-5.5136,-5.5161,-5.5112,-5.512,-5.5145,-5.5184,-5.5188,-5.5211,-5.5253,-5.5284,-5.5265,-5.5292,-5.5324,-5.5302,-5.5332,-5.5329,-5.533,-5.516,-5.5142,-5.535,-5.535,-5.535,-5.535,-5.5349,-5.5349,-5.5206,-5.5272,-5.5253,-5.532,-5.5314,-5.5357,-5.5366,-5.5376,-5.5379,-5.5429,-5.5454,-5.5441,-5.5437,-5.5463,-5.549,-5.5484,-5.5497,-5.5536,-5.5522,-5.5364,-5.5341,-5.5319,-5.5301,-5.5539,-5.554,-5.5688,-5.569,-5.5691]},{"header":{"parameterUnit":"m.s-1","parameterCategory":1,"la1":30.2991,"la2":30.254,"lo1":-89.0895,"lo2":-89.0444,"dy":0.0017,"dx":0.0017,"nx":28,"ny":28,"refTime":"2024-08-25T21:00:00:Z","depth":0,"parameterNumber":3,"parameterNumberName":"V-component_of_WINDS"},"data":[0,0,0,0,0,0,0,0,0,0,0,0,0,0,0,0,0,0,0,0,0,0,0,0,0,0,0,0,0,0,0,0,0,0,0,0,0,0,0,0,0,0,0,0,0,0,0,0,0,0,0,0,0,0,0,0,0,0,1.6573,1.6574,0,1.6644,1.6645,1.6646,1.6746,1.6747,1.6749,1.6751,1.6819,1.6819,1.6819,0,0,0,0,0,0,0,0,0,0,0,0,0,1.6518,1.6519,1.6573,1.6574,1.6575,1.6644,1.6645,1.6646,1.6745,1.6747,1.675,1.6752,1.6819,1.6819,1.6819,0,0,0,0,0,0,0,0,0,0,0,0,0,1.6561,1.6519,1.6573,1.6633,1.6639,1.6644,1.6645,1.6647,1.6745,1.6748,1.675,1.6752,1.6819,1.6819,1.6819,1.677,0,0,1.682,1.682,0,0,0,0,0,0,0,0,1.6558,1.6563,1.6623,1.6629,1.6635,1.6689,1.6651,1.6688,1.6744,1.6704,1.6751,1.6754,1.6773,1.6777,1.6785,1.6773,1.6776,1.682,1.6821,1.6821,1.6821,0,0,0,0,0,0,0,1.6555,1.656,1.6601,1.6624,1.6631,1.6655,1.6664,1.6658,1.6723,1.6708,1.6716,1.6723,1.6777,1.6784,1.6787,1.6777,1.682,1.6821,1.6821,1.6821,1.6727,1.6725,0,0,0,0,0,0,1.6544,1.6557,1.6599,1.6603,1.6603,1.6654,1.6664,1.6669,1.6724,1.6735,1.6721,1.6727,1.6783,1.6787,1.679,1.6734,1.6821,1.6821,1.6821,1.673,1.6727,1.6724,0,0,0,0,0,0,1.6542,1.6547,1.6596,1.6582,1.659,1.6652,1.6657,1.6669,1.6677,1.6733,1.6745,1.6716,1.6785,1.679,1.6774,1.6738,1.6821,1.6821,1.6733,1.6729,1.6725,1.6623,0,0,0,0,0,0,1.654,1.6546,1.6528,1.6581,1.6591,1.658,1.6655,1.6669,1.6678,1.6687,1.6732,1.6742,1.6787,1.6773,1.6775,1.674,1.6822,1.6736,1.6731,1.6726,1.663,1.6616,1.6604,0,0,0,0,0,1.6538,1.6496,1.6527,1.6531,1.6571,1.6578,1.6583,1.6637,1.6674,1.6657,1.6693,1.6741,1.6743,1.6771,1.6773,1.6738,1.6739,1.6733,1.6727,1.6635,1.6619,1.6604,0,0,0,0,0,0,1.6435,1.6504,1.6539,1.6513,1.6539,1.6594,1.6574,1.6617,1.6632,1.6639,1.6704,1.6714,1.669,1.6713,1.6743,1.6693,1.6748,1.6742,1.6678,1.6662,1.665,1.6643,1.6822,0,0,0,0,0,1.641,1.6411,1.6471,1.6442,1.6453,1.6511,1.6516,1.6556,1.6584,1.6595,1.6631,1.6655,1.6662,1.6664,1.6673,1.6635,1.6645,1.6612,1.6599,1.6589,1.6581,1.6561,1.6547,1.6704,1.6704,1.6704,0,0,1.6356,1.6394,1.6391,1.6422,1.6447,1.6445,1.6519,1.6515,1.6513,1.6594,1.6581,1.6608,1.664,1.6613,1.6603,1.6632,1.6541,1.6581,1.6572,1.6571,1.6553,1.6538,1.6525,1.67,1.6701,1.6701,0,0,1.6258,1.6288,1.6266,1.629,1.6327,1.6366,1.6361,1.6411,1.6432,1.6421,1.6481,1.648,1.649,1.651,1.6521,1.6431,1.6475,1.6433,1.6364,1.6343,1.6331,1.632,1.6285,1.6272,1.6426,1.6426,1.6426,0,1.6186,1.6187,1.6249,1.6241,1.6252,1.6328,1.6305,1.6325,1.6362,1.6367,1.64,1.6413,1.644,1.6418,1.6396,1.6404,1.6398,1.6426,1.6328,1.6318,1.6309,1.6276,1.6263,1.642,1.6421,1.6421,1.6422,0,1.6096,1.6096,1.6074,1.6109,1.6119,1.6103,1.6161,1.6163,1.6202,1.6237,1.6224,1.626,1.6276,1.6275,1.6313,1.6257,1.6274,1.6317,1.6373,1.6287,1.6257,1.6246,1.6412,1.6414,1.6416,1.6417,0,0,1.5931,1.6003,1.5993,1.601,1.6057,1.6057,1.6045,1.6064,1.6062,1.6086,1.6076,1.6083,1.6123,1.6135,1.6177,1.6159,1.6082,1.6204,1.6206,1.6177,1.6021,1.5985,1.597,1.6114,1.6112,1.611,1.6017,0,1.5839,1.5823,1.5879,1.5847,1.5846,1.5919,1.5908,1.5935,1.5968,1.5971,1.6008,1.601,1.6064,1.6072,1.6059,1.6094,1.6051,1.6103,1.6101,1.61,1.6087,1.5955,1.5918,1.5828,1.6006,1.6004,1.6003,0,1.5728,1.5748,1.5716,1.5765,1.5767,1.5756,1.5777,1.578,1.5812,1.5837,1.5852,1.59,1.589,1.5946,1.5931,1.5965,1.5968,1.5986,1.5984,1.5983,1.6043,1.5947,1.5802,1.5786,1.5986,1.5987,1.5988,0,1.5607,1.5626,1.5609,1.5622,1.5679,1.5669,1.5692,1.5727,1.5734,1.5752,1.5757,1.5773,1.5781,1.5792,1.5843,1.588,1.5821,1.5882,1.5839,1.5837,1.5819,1.5819,1.5669,1.5828,1.5828,1.5828,1.5828,0,1.5496,1.5473,1.5555,1.5544,1.5521,1.5586,1.556,1.559,1.562,1.5615,1.568,1.5674,1.5743,1.5744,1.5784,1.5764,1.5768,1.5786,1.5796,1.5778,1.5775,1.5778,1.5784,1.5825,1.5825,1.5826,1.5827,0,1.5355,1.541,1.5396,1.5452,1.5466,1.5445,1.5493,1.5484,1.5522,1.5515,1.5517,1.5576,1.558,1.5633,1.5649,1.5676,1.5639,1.5663,1.5628,1.5634,1.5586,1.5589,1.543,1.5411,1.5584,1.5583,1.5581,0,1.5279,1.5263,1.5318,1.532,1.5341,1.5344,1.5352,1.5415,1.5421,1.5456,1.5442,1.5453,1.5464,1.5467,1.551,1.5522,1.5545,1.5488,1.5547,1.5528,1.554,1.5538,1.5536,1.5474,1.5472,1.547,1.5469,0,1.5136,1.5164,1.5174,1.5193,1.5202,1.5219,1.5241,1.5239,1.5309,1.5311,1.5318,1.5326,1.5343,1.5351,1.5372,1.5394,1.5441,1.5451,1.5441,1.542,1.5399,1.5407,1.559,1.5453,1.5455,1.5456,1.5457,1.5457,1.5023,1.5012,1.5049,1.5057,1.5081,1.51,1.5094,1.5133,1.5139,1.5159,1.5196,1.5196,1.5228,1.526,1.5279,1.5278,1.5307,1.5293,1.5289,1.5284,1.5273,1.5403,1.5283,1.5283,1.5284,1.5284,1.5285,0,1.4881,1.4909,1.4917,1.4946,1.4952,1.5,1.5027,1.5028,1.5028,1.5055,1.5065,1.5071,1.508,1.5124,1.5137,1.5128,1.515,1.5129,1.5128,1.5132,1.5248,1.5254,1.5111,1.5111,1.5111,1.5111,1.5111,1.5111,1.4808,1.4791,1.4823,1.4818,1.4846,1.4848,1.4858,1.4876,1.4897,1.4902,1.491,1.494,1.4973,1.499,1.4999,1.5012,1.5012,1.4982,1.5002,1.5108,1.5124,1.514,1.5146,1.4983,1.4983,1.4886,1.4885,1.4884]}]]